カタログに戻る

SL-14 R/B

運用中PO
NORAD 22627·ROCKET BODY·🇷🇺 Russia

打ち上げ Apr 16, 1993 から Plesetsk Cosmodrome

Loading…

次のパス (今後24時間)

TLE

最新Source: Space-Track

元期: Sep 14, 2026, 06:10 UTC

1 22627U 93024B   26257.25708664  .00000273  00000-0  32615-4 0  9990
2 22627  82.5230 202.0691 0024205  83.1144 277.2822 14.80196017801056

AllMySatでSL-14 R/Bをリアルタイム追跡

Download on the App Store